User: anonymous   Login
Location: Arbon
(43.0005°N, 0.7472°E)
Time: 02:09:41
(UTC+00:00)
Language:

Cosmos 2297 Rocket - Orbit

View from above orbital plane
View from above orbital plane
View from above satellite
View from above satellite

Ground track
Ground track

The orbit data is extracted from the following two-line orbital elements,

1 23405U 94077B   20302.57861167 -.00000283 +00000-0 -12114-3 0  9996
2 23405 070.9815 150.5549 0005029 263.3856 096.6694 14.15224695339198
Epoch (UTC): 28 October 2020 13:53:12
Eccentricity: 0.0005029
inclination: 70.9815°
perigee height: 838 km
apogee height: 845 km
right ascension of ascending node: 150.5549°
argument of perigee: 263.3856°
revolutions per day: 14.15224695
mean anomaly at epoch: 96.6694°
orbit number at epoch: 33919

The dashed part of the orbit path shows where the satellite is in the earth's shadow,  

DLR